Home   Weather   Thiès   Past weeks

Flag for Senegal Past Weather in Thiès, Senegal — Yesterday and Last 2 Weeks

Now
75 °F

Sunny.


Feels Like: 78 °F
Forecast: N/A
Wind: 13 mph from North

Location: Dakar / Yoff

Current Time: Jan 16, 2017 at 3:13:22 pm

Latest Report: Jan 16, 2017 at 2:30 pm


Visibility: 10 mi

Pressure: 29.83 "Hg

Humidity: 47%

Dew Point: 54 °F

Location of ThièsLocation

Past Weather in Thiès — Graph

°F

Thiès Temperature Yesterday

Maximum temperature yesterday: 77 °F (at 12:30 pm)
Minimum temperature yesterday: 68 °F (at 1:00 am)
Average temperature yesterday: 71 °F

High & Low Weather Summary for the Past Weeks

 TemperatureHumidityPressure
High93 °F (Jan 3, 2:30 pm)94% (Jan 7, 11:30 pm)30.04 "Hg (Jan 7, 11:30 pm)
Low68 °F (Jan 7, 6:30 am)12% (Jan 5, 11:00 am)29.80 "Hg (Jan 14, 3:30 pm)
Average75 °F52%29.91 "Hg
* Reported Jan 1 2:00 pm — Jan 16 2:00 pm, Thiès, Weather by CustomWeather, © 2017

Note: Actual official high and low records may vary slightly from our data, if they occured in-between our weather recording intervals... More about our weather records

Advertising

Thiès Weather History for the Previous 24 Hours

Scroll right to see more
 ConditionsComfort  
Time TempWeatherWind HumidityBarometerVisibility
2:00 pm
Mon, Jan 16
75 °FSunny.13 mph44%29.86 "Hg10 mi
1:30 pm75 °FSunny.13 mph47%29.86 "Hg10 mi
1:00 pm73 °FSunny.13 mph53%29.89 "Hg10 mi
12:30 pm73 °FSunny.14 mph50%29.92 "Hg10 mi
12:00 pm75 °FClear.15 mph54%29.92 "Hg6 mi
11:30 am73 °FClear.15 mph61%29.92 "Hg5 mi
11:00 am73 °FClear.15 mph61%29.95 "Hg5 mi
10:30 am73 °FClear.14 mph65%29.95 "Hg5 mi
10:00 am72 °FClear.14 mph69%29.95 "Hg5 mi
9:30 am72 °FClear.12 mph69%29.92 "Hg5 mi
9:00 am70 °FClear.10 mph73%29.92 "Hg5 mi
8:30 am68 °FClear.9 mph78%29.92 "Hg5 mi
8:00 am68 °FClear.8 mph78%29.92 "Hg5 mi
7:30 am68 °FClear.9 mph78%29.89 "Hg5 mi
7:00 am68 °FClear.9 mph78%29.89 "Hg5 mi
6:30 am68 °FClear.9 mph78%29.89 "Hg10 mi
6:00 am68 °FClear.10 mph78%29.89 "Hg10 mi
5:30 am68 °FClear.8 mph83%29.86 "Hg10 mi
5:00 am68 °FClear.9 mph78%29.86 "Hg10 mi
4:30 am68 °FClear.8 mph78%29.86 "Hg10 mi
4:00 am68 °FClear.8 mph78%29.86 "Hg10 mi
3:00 am68 °FClear.10 mph60%29.89 "Hg10 mi
2:30 am68 °FClear.9 mph78%29.89 "Hg10 mi
2:00 am70 °FClear.10 mph73%29.89 "Hg10 mi
1:30 am70 °FClear.10 mph73%29.89 "Hg10 mi
1:00 am70 °FClear.10 mph73%29.89 "Hg10 mi
12:30 am70 °FClear.10 mph78%29.89 "Hg10 mi
12:00 am70 °FClear.10 mph73%29.89 "Hg10 mi
11:30 pm
Sun, Jan 15
70 °FClear.12 mph78%29.92 "Hg10 mi
11:00 pm70 °FClear.10 mph78%29.92 "Hg10 mi
10:30 pm70 °FClear.10 mph78%29.92 "Hg10 mi
10:00 pm70 °FClear.9 mph78%29.92 "Hg10 mi
9:30 pm70 °FClear.9 mph78%29.89 "Hg10 mi
9:00 pm70 °FClear.9 mph78%29.89 "Hg10 mi
8:30 pm70 °FClear.10 mph78%29.89 "Hg10 mi
8:00 pm70 °FClear.12 mph78%29.86 "Hg10 mi
7:30 pm70 °FClear.10 mph78%29.86 "Hg10 mi
7:00 pm72 °FClear.13 mph73%29.86 "Hg10 mi
6:30 pm72 °FSunny.12 mph69%29.86 "Hg10 mi
6:00 pm73 °FSunny.14 mph65%29.86 "Hg10 mi
5:30 pm75 °FSunny.13 mph57%29.83 "Hg10 mi
5:00 pm75 °FSunny.13 mph57%29.83 "Hg10 mi
4:30 pm75 °FSunny.13 mph50%29.83 "Hg10 mi
4:00 pm75 °FSunny.15 mph50%29.83 "Hg10 mi
3:30 pm75 °FSunny.13 mph54%29.83 "Hg10 mi
3:00 pm77 °FSunny.13 mph44%29.83 "Hg10 mi
Weather by CustomWeather, © 2017

See weather overviewHow to use our weather pages